owner,sensor,date,latitude,longitude,sea_surface_height_above_sea_level,qcFlag 
TCOON,ioos:station:TCOON:009:1,2014-06-01T00:00:00Z,27.8398,-97.0727,1.685,1111122 
TCOON,ioos:station:TCOON:009:1,2014-06-01T01:00:00Z,27.8398,-97.0727,1.621,1111122 
TCOON,ioos:station:TCOON:009:1,2014-06-01T01:54:00Z,27.8398,-97.0727,1.589,1111122 
TCOON,ioos:station:TCOON:009:1,2014-06-01T03:00:00Z,27.8398,-97.0727,1.54,1111122 
TCOON,ioos:station:TCOON:009:1,2014-06-01T04:00:00Z,27.8398,-97.0727,1.49,1111122 
TCOON,ioos:station:TCOON:009:1,2014-06-01T05:00:00Z,27.8398,-97.0727,1.52,1111122 
TCOON,ioos:station:TCOON:009:1,2014-06-01T06:30:00Z,27.8398,-97.0727,1.535,1111122 
TCOON,ioos:station:TCOON:009:1,2014-06-01T07:00:00Z,27.8398,-97.0727,1.558,1111122 
TCOON,ioos:station:TCOON:009:1,2014-06-01T08:00:00Z,27.8398,-97.0727,1.612,1111122 
TCOON,ioos:station:TCOON:009:1,2014-06-01T09:00:00Z,27.8398,-97.0727,1.678,1111122 
TCOON,ioos:station:TCOON:009:1,2014-06-01T10:00:00Z,27.8398,-97.0727,1.725,1111122 
TCOON,ioos:station:TCOON:009:1,2014-06-01T11:00:00Z,27.8398,-97.0727,1.78,1111122 
TCOON,ioos:station:TCOON:009:1,2014-06-01T12:00:00Z,27.8398,-97.0727,1.825,1111122 
TCOON,ioos:station:TCOON:009:1,2014-06-01T13:00:00Z,27.8398,-97.0727,1.835,1111122 
TCOON,ioos:station:TCOON:009:1,2014-06-01T14:00:00Z,27.8398,-97.0727,1.823,1111122 
TCOON,ioos:station:TCOON:009:1,2014-06-01T15:00:00Z,27.8398,-97.0727,1.822,1111122 
TCOON,ioos:station:TCOON:009:1,2014-06-01T16:00:00Z,27.8398,-97.0727,1.819,1111122 
TCOON,ioos:station:TCOON:009:1,2014-06-01T17:00:00Z,27.8398,-97.0727,1.846,1111122 
TCOON,ioos:station:TCOON:009:1,2014-06-01T18:00:00Z,27.8398,-97.0727,1.804,1111122 
TCOON,ioos:station:TCOON:009:1,2014-06-01T19:00:00Z,27.8398,-97.0727,1.812,1111122 
TCOON,ioos:station:TCOON:009:1,2014-06-01T20:00:00Z,27.8398,-97.0727,1.788,1111122 
TCOON,ioos:station:TCOON:009:1,2014-06-01T21:00:00Z,27.8398,-97.0727,1.82,1111122 
TCOON,ioos:station:TCOON:009:1,2014-06-01T22:00:00Z,27.8398,-97.0727,1.818,1111122 
TCOON,ioos:station:TCOON:009:1,2014-06-01T23:00:00Z,27.8398,-97.0727,1.831,1111122 
TCOON,ioos:station:TCOON:009:1,2014-06-01T23:54:00Z,27.8398,-97.0727,1.788,1111122 
TCOON,ioos:station:TCOON:009:1,2014-06-02T01:00:00Z,27.8398,-97.0727,1.736,1111122 
TCOON,ioos:station:TCOON:009:1,2014-06-02T02:00:00Z,27.8398,-97.0727,1.711,1111122 
TCOON,ioos:station:TCOON:009:1,2014-06-02T03:00:00Z,27.8398,-97.0727,1.675,1111122 
TCOON,ioos:station:TCOON:009:1,2014-06-02T04:00:00Z,27.8398,-97.0727,1.62,1111122 
TCOON,ioos:station:TCOON:009:1,2014-06-02T05:00:00Z,27.8398,-97.0727,1.617,1111122 
TCOON,ioos:station:TCOON:009:1,2014-06-02T06:36:00Z,27.8398,-97.0727,1.622,1111122 
TCOON,ioos:station:TCOON:009:1,2014-06-02T07:00:00Z,27.8398,-97.0727,1.631,1111122 
TCOON,ioos:station:TCOON:009:1,2014-06-02T08:00:00Z,27.8398,-97.0727,1.675,1111122 
TCOON,ioos:station:TCOON:009:1,2014-06-02T09:00:00Z,27.8398,-97.0727,1.748,1111122 
TCOON,ioos:station:TCOON:009:1,2014-06-02T10:00:00Z,27.8398,-97.0727,1.768,1111122 
TCOON,ioos:station:TCOON:009:1,2014-06-02T11:00:00Z,27.8398,-97.0727,1.827,1111122 
TCOON,ioos:station:TCOON:009:1,2014-06-02T12:00:00Z,27.8398,-97.0727,1.842,1111122 
TCOON,ioos:station:TCOON:009:1,2014-06-02T12:54:00Z,27.8398,-97.0727,1.866,1111122 
TCOON,ioos:station:TCOON:009:1,2014-06-02T14:00:00Z,27.8398,-97.0727,1.878,1111122 
TCOON,ioos:station:TCOON:009:1,2014-06-02T15:00:00Z,27.8398,-97.0727,1.887,1111122 
TCOON,ioos:station:TCOON:009:1,2014-06-02T16:00:00Z,27.8398,-97.0727,1.906,1111122 
TCOON,ioos:station:TCOON:009:1,2014-06-02T17:00:00Z,27.8398,-97.0727,1.87,1111122 
TCOON,ioos:station:TCOON:009:1,2014-06-02T18:00:00Z,27.8398,-97.0727,1.872,1111122 
TCOON,ioos:station:TCOON:009:1,2014-06-02T19:00:00Z,27.8398,-97.0727,1.881,1111122 
TCOON,ioos:station:TCOON:009:1,2014-06-02T20:00:00Z,27.8398,-97.0727,1.863,1111122 
TCOON,ioos:station:TCOON:009:1,2014-06-02T21:00:00Z,27.8398,-97.0727,1.841,1111122 
TCOON,ioos:station:TCOON:009:1,2014-06-02T22:00:00Z,27.8398,-97.0727,1.849,1111122 
TCOON,ioos:station:TCOON:009:1,2014-06-02T23:00:00Z,27.8398,-97.0727,1.838,1111122 
TCOON,ioos:station:TCOON:009:1,2014-06-02T23:54:00Z,27.8398,-97.0727,1.822,1111122 
TCOON,ioos:station:TCOON:009:1,2014-06-03T01:00:00Z,27.8398,-97.0727,1.794,1111122 
TCOON,ioos:station:TCOON:009:1,2014-06-03T02:00:00Z,27.8398,-97.0727,1.796,1111122 
TCOON,ioos:station:TCOON:009:1,2014-06-03T03:00:00Z,27.8398,-97.0727,1.731,1111122 
TCOON,ioos:station:TCOON:009:1,2014-06-03T04:00:00Z,27.8398,-97.0727,1.699,1111122 
TCOON,ioos:station:TCOON:009:1,2014-06-03T05:00:00Z,27.8398,-97.0727,1.664,1111122 
TCOON,ioos:station:TCOON:009:1,2014-06-03T06:24:00Z,27.8398,-97.0727,1.68,1111122 
TCOON,ioos:station:TCOON:009:1,2014-06-03T07:00:00Z,27.8398,-97.0727,1.68,1111122 
TCOON,ioos:station:TCOON:009:1,2014-06-03T08:00:00Z,27.8398,-97.0727,1.712,1111122 
TCOON,ioos:station:TCOON:009:1,2014-06-03T09:00:00Z,27.8398,-97.0727,1.741,1111122 
TCOON,ioos:station:TCOON:009:1,2014-06-03T10:00:00Z,27.8398,-97.0727,1.766,1111122 
TCOON,ioos:station:TCOON:009:1,2014-06-03T11:00:00Z,27.8398,-97.0727,1.799,1111122 
TCOON,ioos:station:TCOON:009:1,2014-06-03T12:00:00Z,27.8398,-97.0727,1.883,1111122 
TCOON,ioos:station:TCOON:009:1,2014-06-03T13:00:00Z,27.8398,-97.0727,1.879,1111122 
TCOON,ioos:station:TCOON:009:1,2014-06-03T14:00:00Z,27.8398,-97.0727,1.886,1111122 
TCOON,ioos:station:TCOON:009:1,2014-06-03T15:00:00Z,27.8398,-97.0727,1.897,1111122 
TCOON,ioos:station:TCOON:009:1,2014-06-03T16:00:00Z,27.8398,-97.0727,1.884,1111122 
TCOON,ioos:station:TCOON:009:1,2014-06-03T17:00:00Z,27.8398,-97.0727,1.886,1111122 
TCOON,ioos:station:TCOON:009:1,2014-06-03T18:00:00Z,27.8398,-97.0727,1.887,1111122 
TCOON,ioos:station:TCOON:009:1,2014-06-03T19:00:00Z,27.8398,-97.0727,1.871,1111122 
TCOON,ioos:station:TCOON:009:1,2014-06-03T20:00:00Z,27.8398,-97.0727,1.855,1111122 
TCOON,ioos:station:TCOON:009:1,2014-06-03T21:00:00Z,27.8398,-97.0727,1.859,1111122 
TCOON,ioos:station:TCOON:009:1,2014-06-03T22:00:00Z,27.8398,-97.0727,1.82,1111122 
TCOON,ioos:station:TCOON:009:1,2014-06-03T23:00:00Z,27.8398,-97.0727,1.844,1111122 
TCOON,ioos:station:TCOON:009:1,2014-06-04T00:00:00Z,27.8398,-97.0727,1.834,1111122 
TCOON,ioos:station:TCOON:009:1,2014-06-04T01:00:00Z,27.8398,-97.0727,1.813,1111122 
TCOON,ioos:station:TCOON:009:1,2014-06-04T01:54:00Z,27.8398,-97.0727,1.79,1111122 
TCOON,ioos:station:TCOON:009:1,2014-06-04T03:00:00Z,27.8398,-97.0727,1.768,1111122 
TCOON,ioos:station:TCOON:009:1,2014-06-04T04:00:00Z,27.8398,-97.0727,1.749,1111122 
TCOON,ioos:station:TCOON:009:1,2014-06-04T05:00:00Z,27.8398,-97.0727,1.714,1111122 
TCOON,ioos:station:TCOON:009:1,2014-06-04T06:00:00Z,27.8398,-97.0727,1.699,1111122 
TCOON,ioos:station:TCOON:009:1,2014-06-04T07:00:00Z,27.8398,-97.0727,1.688,1111122 
TCOON,ioos:station:TCOON:009:1,2014-06-04T08:00:00Z,27.8398,-97.0727,1.685,1111122 
TCOON,ioos:station:TCOON:009:1,2014-06-04T09:00:00Z,27.8398,-97.0727,1.711,1111122 
TCOON,ioos:station:TCOON:009:1,2014-06-04T10:00:00Z,27.8398,-97.0727,1.743,1111122 
TCOON,ioos:station:TCOON:009:1,2014-06-04T11:00:00Z,27.8398,-97.0727,1.804,1111122 
TCOON,ioos:station:TCOON:009:1,2014-06-04T12:00:00Z,27.8398,-97.0727,1.844,1111122 
TCOON,ioos:station:TCOON:009:1,2014-06-04T13:00:00Z,27.8398,-97.0727,1.847,1111122 
TCOON,ioos:station:TCOON:009:1,2014-06-04T14:00:00Z,27.8398,-97.0727,1.844,1111122 
TCOON,ioos:station:TCOON:009:1,2014-06-04T15:00:00Z,27.8398,-97.0727,1.891,1111122 
TCOON,ioos:station:TCOON:009:1,2014-06-04T16:00:00Z,27.8398,-97.0727,1.869,1111122 
TCOON,ioos:station:TCOON:009:1,2014-06-04T17:00:00Z,27.8398,-97.0727,1.883,1111122 
TCOON,ioos:station:TCOON:009:1,2014-06-04T18:00:00Z,27.8398,-97.0727,1.844,1111122 
TCOON,ioos:station:TCOON:009:1,2014-06-04T19:00:00Z,27.8398,-97.0727,1.841,1111122 
TCOON,ioos:station:TCOON:009:1,2014-06-04T20:00:00Z,27.8398,-97.0727,1.808,1111122 
TCOON,ioos:station:TCOON:009:1,2014-06-04T21:00:00Z,27.8398,-97.0727,1.806,1111122 
TCOON,ioos:station:TCOON:009:1,2014-06-04T22:00:00Z,27.8398,-97.0727,1.815,1111122 
TCOON,ioos:station:TCOON:009:1,2014-06-04T23:00:00Z,27.8398,-97.0727,1.799,1111122 
TCOON,ioos:station:TCOON:009:1,2014-06-05T00:00:00Z,27.8398,-97.0727,1.784,1111122 
TCOON,ioos:station:TCOON:009:1,2014-06-05T00:54:00Z,27.8398,-97.0727,1.778,1111122 
TCOON,ioos:station:TCOON:009:1,2014-06-05T01:54:00Z,27.8398,-97.0727,1.781,1111122 
TCOON,ioos:station:TCOON:009:1,2014-06-05T03:00:00Z,27.8398,-97.0727,1.758,1111122 
TCOON,ioos:station:TCOON:009:1,2014-06-05T04:00:00Z,27.8398,-97.0727,1.75,1111122 
TCOON,ioos:station:TCOON:009:1,2014-06-05T05:00:00Z,27.8398,-97.0727,1.758,1111122 
TCOON,ioos:station:TCOON:009:1,2014-06-05T06:24:00Z,27.8398,-97.0727,1.719,1111122 
TCOON,ioos:station:TCOON:009:1,2014-06-05T06:54:00Z,27.8398,-97.0727,1.709,1111122 
TCOON,ioos:station:TCOON:009:1,2014-06-05T08:00:00Z,27.8398,-97.0727,1.69,1111122 
TCOON,ioos:station:TCOON:009:1,2014-06-05T09:00:00Z,27.8398,-97.0727,1.723,1111122 
TCOON,ioos:station:TCOON:009:1,2014-06-05T10:00:00Z,27.8398,-97.0727,1.754,1111122 
TCOON,ioos:station:TCOON:009:1,2014-06-05T11:00:00Z,27.8398,-97.0727,1.783,1111122 
TCOON,ioos:station:TCOON:009:1,2014-06-05T12:00:00Z,27.8398,-97.0727,1.789,1111122 
TCOON,ioos:station:TCOON:009:1,2014-06-05T13:00:00Z,27.8398,-97.0727,1.834,1111122 
TCOON,ioos:station:TCOON:009:1,2014-06-05T14:00:00Z,27.8398,-97.0727,1.847,1111122 
TCOON,ioos:station:TCOON:009:1,2014-06-05T15:00:00Z,27.8398,-97.0727,1.854,1111122 
TCOON,ioos:station:TCOON:009:1,2014-06-05T16:00:00Z,27.8398,-97.0727,1.828,1111122 
TCOON,ioos:station:TCOON:009:1,2014-06-05T17:00:00Z,27.8398,-97.0727,1.83,1111122 
TCOON,ioos:station:TCOON:009:1,2014-06-05T18:00:00Z,27.8398,-97.0727,1.854,1111122 
TCOON,ioos:station:TCOON:009:1,2014-06-05T19:00:00Z,27.8398,-97.0727,1.831,1111122 
TCOON,ioos:station:TCOON:009:1,2014-06-05T20:00:00Z,27.8398,-97.0727,1.827,1111122 
TCOON,ioos:station:TCOON:009:1,2014-06-05T21:00:00Z,27.8398,-97.0727,1.776,1111122 
TCOON,ioos:station:TCOON:009:1,2014-06-05T22:00:00Z,27.8398,-97.0727,1.769,1111122 
TCOON,ioos:station:TCOON:009:1,2014-06-05T23:00:00Z,27.8398,-97.0727,1.774,1111122 
TCOON,ioos:station:TCOON:009:1,2014-06-06T00:00:00Z,27.8398,-97.0727,1.777,1111122 
TCOON,ioos:station:TCOON:009:1,2014-06-06T01:00:00Z,27.8398,-97.0727,1.773,1111122 
TCOON,ioos:station:TCOON:009:1,2014-06-06T02:00:00Z,27.8398,-97.0727,1.786,1111122 
TCOON,ioos:station:TCOON:009:1,2014-06-06T03:00:00Z,27.8398,-97.0727,1.772,1111122 
TCOON,ioos:station:TCOON:009:1,2014-06-06T04:00:00Z,27.8398,-97.0727,1.762,1111122 
TCOON,ioos:station:TCOON:009:1,2014-06-06T05:00:00Z,27.8398,-97.0727,1.783,1111122 
TCOON,ioos:station:TCOON:009:1,2014-06-06T06:24:00Z,27.8398,-97.0727,1.749,1111122 
TCOON,ioos:station:TCOON:009:1,2014-06-06T06:54:00Z,27.8398,-97.0727,1.744,1111122 
TCOON,ioos:station:TCOON:009:1,2014-06-06T08:00:00Z,27.8398,-97.0727,1.728,1111122 
TCOON,ioos:station:TCOON:009:1,2014-06-06T09:00:00Z,27.8398,-97.0727,1.722,1111122 
TCOON,ioos:station:TCOON:009:1,2014-06-06T10:00:00Z,27.8398,-97.0727,1.739,1111122 
TCOON,ioos:station:TCOON:009:1,2014-06-06T11:00:00Z,27.8398,-97.0727,1.759,1111122 
TCOON,ioos:station:TCOON:009:1,2014-06-06T12:00:00Z,27.8398,-97.0727,1.766,1111122 
TCOON,ioos:station:TCOON:009:1,2014-06-06T13:00:00Z,27.8398,-97.0727,1.794,1111122 
TCOON,ioos:station:TCOON:009:1,2014-06-06T14:00:00Z,27.8398,-97.0727,1.802,1111122 
TCOON,ioos:station:TCOON:009:1,2014-06-06T15:00:00Z,27.8398,-97.0727,1.793,1111122 
TCOON,ioos:station:TCOON:009:1,2014-06-06T16:00:00Z,27.8398,-97.0727,1.808,1111122 
TCOON,ioos:station:TCOON:009:1,2014-06-06T17:00:00Z,27.8398,-97.0727,1.786,1111122 
TCOON,ioos:station:TCOON:009:1,2014-06-06T18:00:00Z,27.8398,-97.0727,1.775,1111122 
TCOON,ioos:station:TCOON:009:1,2014-06-06T19:00:00Z,27.8398,-97.0727,1.766,1111122 
TCOON,ioos:station:TCOON:009:1,2014-06-06T20:00:00Z,27.8398,-97.0727,1.728,1111122 
TCOON,ioos:station:TCOON:009:1,2014-06-06T21:00:00Z,27.8398,-97.0727,1.68,1111122 
TCOON,ioos:station:TCOON:009:1,2014-06-06T22:00:00Z,27.8398,-97.0727,1.674,1111122 
TCOON,ioos:station:TCOON:009:1,2014-06-06T23:00:00Z,27.8398,-97.0727,1.66,1111122 
TCOON,ioos:station:TCOON:009:1,2014-06-07T00:00:00Z,27.8398,-97.0727,1.644,1111122 
TCOON,ioos:station:TCOON:009:1,2014-06-07T01:00:00Z,27.8398,-97.0727,1.651,1111122 
TCOON,ioos:station:TCOON:009:1,2014-06-07T02:00:00Z,27.8398,-97.0727,1.671,1111122 
TCOON,ioos:station:TCOON:009:1,2014-06-07T03:00:00Z,27.8398,-97.0727,1.689,1111122 
TCOON,ioos:station:TCOON:009:1,2014-06-07T04:00:00Z,27.8398,-97.0727,1.722,1111122 
TCOON,ioos:station:TCOON:009:1,2014-06-07T05:00:00Z,27.8398,-97.0727,1.757,1111122 
TCOON,ioos:station:TCOON:009:1,2014-06-07T06:00:00Z,27.8398,-97.0727,1.738,1111122 
TCOON,ioos:station:TCOON:009:1,2014-06-07T07:00:00Z,27.8398,-97.0727,1.735,1111122 
TCOON,ioos:station:TCOON:009:1,2014-06-07T08:00:00Z,27.8398,-97.0727,1.709,1111122 
TCOON,ioos:station:TCOON:009:1,2014-06-07T09:00:00Z,27.8398,-97.0727,1.737,1111122 
TCOON,ioos:station:TCOON:009:1,2014-06-07T10:00:00Z,27.8398,-97.0727,1.715,1111122 
TCOON,ioos:station:TCOON:009:1,2014-06-07T11:00:00Z,27.8398,-97.0727,1.726,1111122 
TCOON,ioos:station:TCOON:009:1,2014-06-07T11:54:00Z,27.8398,-97.0727,1.733,1111122 
TCOON,ioos:station:TCOON:009:1,2014-06-07T13:00:00Z,27.8398,-97.0727,1.771,1111122 
TCOON,ioos:station:TCOON:009:1,2014-06-07T14:00:00Z,27.8398,-97.0727,1.758,1111122 
TCOON,ioos:station:TCOON:009:1,2014-06-07T15:06:00Z,27.8398,-97.0727,1.8,1111122 
TCOON,ioos:station:TCOON:009:1,2014-06-07T16:00:00Z,27.8398,-97.0727,1.78,1111122 
TCOON,ioos:station:TCOON:009:1,2014-06-07T17:00:00Z,27.8398,-97.0727,1.79,1111122 
TCOON,ioos:station:TCOON:009:1,2014-06-07T18:00:00Z,27.8398,-97.0727,1.754,1111122 
TCOON,ioos:station:TCOON:009:1,2014-06-07T19:00:00Z,27.8398,-97.0727,1.724,1111122 
TCOON,ioos:station:TCOON:009:1,2014-06-07T20:00:00Z,27.8398,-97.0727,1.702,1111122 
TCOON,ioos:station:TCOON:009:1,2014-06-07T21:00:00Z,27.8398,-97.0727,1.657,1111122 
TCOON,ioos:station:TCOON:009:1,2014-06-07T21:54:00Z,27.8398,-97.0727,1.604,1111122 
TCOON,ioos:station:TCOON:009:1,2014-06-07T23:00:00Z,27.8398,-97.0727,1.578,1111122 
TCOON,ioos:station:TCOON:009:1,2014-06-08T00:00:00Z,27.8398,-97.0727,1.584,1111122 
TCOON,ioos:station:TCOON:009:1,2014-06-08T01:00:00Z,27.8398,-97.0727,1.579,1111122 
TCOON,ioos:station:TCOON:009:1,2014-06-08T01:54:00Z,27.8398,-97.0727,1.624,1111122 
TCOON,ioos:station:TCOON:009:1,2014-06-08T03:00:00Z,27.8398,-97.0727,1.675,1111122 
TCOON,ioos:station:TCOON:009:1,2014-06-08T04:12:00Z,27.8398,-97.0727,1.699,1111122 
TCOON,ioos:station:TCOON:009:1,2014-06-08T05:00:00Z,27.8398,-97.0727,1.724,1111122 
TCOON,ioos:station:TCOON:009:1,2014-06-08T06:24:00Z,27.8398,-97.0727,1.732,1111122 
TCOON,ioos:station:TCOON:009:1,2014-06-08T07:00:00Z,27.8398,-97.0727,1.743,1111122 
TCOON,ioos:station:TCOON:009:1,2014-06-08T08:00:00Z,27.8398,-97.0727,1.733,1111122 
TCOON,ioos:station:TCOON:009:1,2014-06-08T09:00:00Z,27.8398,-97.0727,1.739,1111122 
TCOON,ioos:station:TCOON:009:1,2014-06-08T10:00:00Z,27.8398,-97.0727,1.766,1111122 
TCOON,ioos:station:TCOON:009:1,2014-06-08T11:00:00Z,27.8398,-97.0727,1.779,1111122 
TCOON,ioos:station:TCOON:009:1,2014-06-08T12:00:00Z,27.8398,-97.0727,1.758,1111122 
TCOON,ioos:station:TCOON:009:1,2014-06-08T13:00:00Z,27.8398,-97.0727,1.776,1111122 
TCOON,ioos:station:TCOON:009:1,2014-06-08T14:00:00Z,27.8398,-97.0727,1.757,1111122 
TCOON,ioos:station:TCOON:009:1,2014-06-08T15:00:00Z,27.8398,-97.0727,1.799,1111122 
TCOON,ioos:station:TCOON:009:1,2014-06-08T16:00:00Z,27.8398,-97.0727,1.78,1111122 
TCOON,ioos:station:TCOON:009:1,2014-06-08T17:00:00Z,27.8398,-97.0727,1.793,1111122 
TCOON,ioos:station:TCOON:009:1,2014-06-08T18:00:00Z,27.8398,-97.0727,1.745,1111122 
TCOON,ioos:station:TCOON:009:1,2014-06-08T19:00:00Z,27.8398,-97.0727,1.688,1111122 
TCOON,ioos:station:TCOON:009:1,2014-06-08T20:00:00Z,27.8398,-97.0727,1.645,1111122 
TCOON,ioos:station:TCOON:009:1,2014-06-08T21:00:00Z,27.8398,-97.0727,1.616,1111122 
TCOON,ioos:station:TCOON:009:1,2014-06-08T22:00:00Z,27.8398,-97.0727,1.598,1111122 
TCOON,ioos:station:TCOON:009:1,2014-06-08T23:00:00Z,27.8398,-97.0727,1.55,1111122 
TCOON,ioos:station:TCOON:009:1,2014-06-09T00:00:00Z,27.8398,-97.0727,1.526,1111122 
TCOON,ioos:station:TCOON:009:1,2014-06-09T01:00:00Z,27.8398,-97.0727,1.517,1111122 
TCOON,ioos:station:TCOON:009:1,2014-06-09T02:00:00Z,27.8398,-97.0727,1.557,1111122 
TCOON,ioos:station:TCOON:009:1,2014-06-09T03:00:00Z,27.8398,-97.0727,1.618,1111122 
TCOON,ioos:station:TCOON:009:1,2014-06-09T04:00:00Z,27.8398,-97.0727,1.601,1111122 
TCOON,ioos:station:TCOON:009:1,2014-06-09T05:00:00Z,27.8398,-97.0727,1.694,1111122 
TCOON,ioos:station:TCOON:009:1,2014-06-09T06:30:00Z,27.8398,-97.0727,1.723,1111122 
TCOON,ioos:station:TCOON:009:1,2014-06-09T07:00:00Z,27.8398,-97.0727,1.739,1111122 
TCOON,ioos:station:TCOON:009:1,2014-06-09T08:00:00Z,27.8398,-97.0727,1.745,1111122 
TCOON,ioos:station:TCOON:009:1,2014-06-09T09:00:00Z,27.8398,-97.0727,1.756,1111122 
TCOON,ioos:station:TCOON:009:1,2014-06-09T10:00:00Z,27.8398,-97.0727,1.753,1111122 
TCOON,ioos:station:TCOON:009:1,2014-06-09T11:00:00Z,27.8398,-97.0727,1.744,1111122 
TCOON,ioos:station:TCOON:009:1,2014-06-09T12:00:00Z,27.8398,-97.0727,1.748,1111122 
TCOON,ioos:station:TCOON:009:1,2014-06-09T12:54:00Z,27.8398,-97.0727,1.76,1111122 
TCOON,ioos:station:TCOON:009:1,2014-06-09T14:00:00Z,27.8398,-97.0727,1.774,1111122 
TCOON,ioos:station:TCOON:009:1,2014-06-09T15:00:00Z,27.8398,-97.0727,1.78,1111122 
TCOON,ioos:station:TCOON:009:1,2014-06-09T16:00:00Z,27.8398,-97.0727,1.772,1111122 
TCOON,ioos:station:TCOON:009:1,2014-06-09T17:00:00Z,27.8398,-97.0727,1.76,1111122 
TCOON,ioos:station:TCOON:009:1,2014-06-09T18:00:00Z,27.8398,-97.0727,1.739,1111122 
TCOON,ioos:station:TCOON:009:1,2014-06-09T19:00:00Z,27.8398,-97.0727,1.699,1111122 
TCOON,ioos:station:TCOON:009:1,2014-06-09T19:54:00Z,27.8398,-97.0727,1.636,1111122 
TCOON,ioos:station:TCOON:009:1,2014-06-09T21:00:00Z,27.8398,-97.0727,1.596,1111122 
TCOON,ioos:station:TCOON:009:1,2014-06-09T22:00:00Z,27.8398,-97.0727,1.54,1111122 
TCOON,ioos:station:TCOON:009:1,2014-06-09T23:00:00Z,27.8398,-97.0727,1.503,1111122 
TCOON,ioos:station:TCOON:009:1,2014-06-10T00:00:00Z,27.8398,-97.0727,1.52,1111122 
TCOON,ioos:station:TCOON:009:1,2014-06-10T01:00:00Z,27.8398,-97.0727,1.459,1111122 
TCOON,ioos:station:TCOON:009:1,2014-06-10T02:00:00Z,27.8398,-97.0727,1.508,1111122 
TCOON,ioos:station:TCOON:009:1,2014-06-10T03:00:00Z,27.8398,-97.0727,1.547,1111122 
TCOON,ioos:station:TCOON:009:1,2014-06-10T04:00:00Z,27.8398,-97.0727,1.579,1111122 
TCOON,ioos:station:TCOON:009:1,2014-06-10T05:00:00Z,27.8398,-97.0727,1.646,1111122 
TCOON,ioos:station:TCOON:009:1,2014-06-10T06:24:00Z,27.8398,-97.0727,1.709,1111122 
TCOON,ioos:station:TCOON:009:1,2014-06-10T07:00:00Z,27.8398,-97.0727,1.745,1111122 
TCOON,ioos:station:TCOON:009:1,2014-06-10T08:00:00Z,27.8398,-97.0727,1.764,1111122 
TCOON,ioos:station:TCOON:009:1,2014-06-10T09:00:00Z,27.8398,-97.0727,1.765,1111122 
TCOON,ioos:station:TCOON:009:1,2014-06-10T10:00:00Z,27.8398,-97.0727,1.74,1111122 
TCOON,ioos:station:TCOON:009:1,2014-06-10T11:00:00Z,27.8398,-97.0727,1.742,1111122 
TCOON,ioos:station:TCOON:009:1,2014-06-10T12:00:00Z,27.8398,-97.0727,1.759,1111122 
TCOON,ioos:station:TCOON:009:1,2014-06-10T13:00:00Z,27.8398,-97.0727,1.742,1111122 
TCOON,ioos:station:TCOON:009:1,2014-06-10T14:00:00Z,27.8398,-97.0727,1.727,1111122 
TCOON,ioos:station:TCOON:009:1,2014-06-10T15:00:00Z,27.8398,-97.0727,1.758,1111122 
TCOON,ioos:station:TCOON:009:1,2014-06-10T16:00:00Z,27.8398,-97.0727,1.748,1111122 
TCOON,ioos:station:TCOON:009:1,2014-06-10T17:00:00Z,27.8398,-97.0727,1.768,1111122 
TCOON,ioos:station:TCOON:009:1,2014-06-10T18:00:00Z,27.8398,-97.0727,1.756,1111122 
TCOON,ioos:station:TCOON:009:1,2014-06-10T19:00:00Z,27.8398,-97.0727,1.684,1111122 
TCOON,ioos:station:TCOON:009:1,2014-06-10T20:00:00Z,27.8398,-97.0727,1.613,1111122 
TCOON,ioos:station:TCOON:009:1,2014-06-10T21:00:00Z,27.8398,-97.0727,1.538,1111122 
TCOON,ioos:station:TCOON:009:1,2014-06-10T22:00:00Z,27.8398,-97.0727,1.529,1111122 
TCOON,ioos:station:TCOON:009:1,2014-06-10T23:00:00Z,27.8398,-97.0727,1.428,1111122 
TCOON,ioos:station:TCOON:009:1,2014-06-11T00:00:00Z,27.8398,-97.0727,1.39,1111122 
TCOON,ioos:station:TCOON:009:1,2014-06-11T01:00:00Z,27.8398,-97.0727,1.335,1111122 
TCOON,ioos:station:TCOON:009:1,2014-06-11T02:00:00Z,27.8398,-97.0727,1.353,1111122 
TCOON,ioos:station:TCOON:009:1,2014-06-11T03:00:00Z,27.8398,-97.0727,1.386,1111122 
TCOON,ioos:station:TCOON:009:1,2014-06-11T04:00:00Z,27.8398,-97.0727,1.465,1111122 
TCOON,ioos:station:TCOON:009:1,2014-06-11T04:54:00Z,27.8398,-97.0727,1.538,1111122 
TCOON,ioos:station:TCOON:009:1,2014-06-11T06:30:00Z,27.8398,-97.0727,1.608,1111122 
TCOON,ioos:station:TCOON:009:1,2014-06-11T07:00:00Z,27.8398,-97.0727,1.642,1111122 
TCOON,ioos:station:TCOON:009:1,2014-06-11T08:00:00Z,27.8398,-97.0727,1.67,1111122 
TCOON,ioos:station:TCOON:009:1,2014-06-11T09:00:00Z,27.8398,-97.0727,1.675,1111122 
TCOON,ioos:station:TCOON:009:1,2014-06-11T10:00:00Z,27.8398,-97.0727,1.692,1111122 
TCOON,ioos:station:TCOON:009:1,2014-06-11T11:00:00Z,27.8398,-97.0727,1.693,1111122 
TCOON,ioos:station:TCOON:009:1,2014-06-11T12:00:00Z,27.8398,-97.0727,1.689,1111122 
TCOON,ioos:station:TCOON:009:1,2014-06-11T13:00:00Z,27.8398,-97.0727,1.723,1111122 
TCOON,ioos:station:TCOON:009:1,2014-06-11T14:00:00Z,27.8398,-97.0727,1.68,1111122 
TCOON,ioos:station:TCOON:009:1,2014-06-11T15:00:00Z,27.8398,-97.0727,1.683,1111122 
TCOON,ioos:station:TCOON:009:1,2014-06-11T16:00:00Z,27.8398,-97.0727,1.663,1111122 
TCOON,ioos:station:TCOON:009:1,2014-06-11T17:00:00Z,27.8398,-97.0727,1.7,1111122 
TCOON,ioos:station:TCOON:009:1,2014-06-11T18:00:00Z,27.8398,-97.0727,1.675,1111122 
TCOON,ioos:station:TCOON:009:1,2014-06-11T19:00:00Z,27.8398,-97.0727,1.655,1111122 
TCOON,ioos:station:TCOON:009:1,2014-06-11T19:54:00Z,27.8398,-97.0727,1.604,1111122 
TCOON,ioos:station:TCOON:009:1,2014-06-11T20:54:00Z,27.8398,-97.0727,1.523,1111122 
TCOON,ioos:station:TCOON:009:1,2014-06-11T22:00:00Z,27.8398,-97.0727,1.452,1111122 
TCOON,ioos:station:TCOON:009:1,2014-06-11T23:00:00Z,27.8398,-97.0727,1.408,1111122 
TCOON,ioos:station:TCOON:009:1,2014-06-12T00:00:00Z,27.8398,-97.0727,1.346,1111122 
TCOON,ioos:station:TCOON:009:1,2014-06-12T01:00:00Z,27.8398,-97.0727,1.3,1111122 
TCOON,ioos:station:TCOON:009:1,2014-06-12T02:00:00Z,27.8398,-97.0727,1.319,1111122 
TCOON,ioos:station:TCOON:009:1,2014-06-12T03:00:00Z,27.8398,-97.0727,1.357,1111122 
TCOON,ioos:station:TCOON:009:1,2014-06-12T04:00:00Z,27.8398,-97.0727,1.409,1111122 
TCOON,ioos:station:TCOON:009:1,2014-06-12T05:00:00Z,27.8398,-97.0727,1.488,1111122 
TCOON,ioos:station:TCOON:009:1,2014-06-12T06:30:00Z,27.8398,-97.0727,1.589,1111122 
TCOON,ioos:station:TCOON:009:1,2014-06-12T07:00:00Z,27.8398,-97.0727,1.599,1111122 
TCOON,ioos:station:TCOON:009:1,2014-06-12T08:00:00Z,27.8398,-97.0727,1.67,1111122 
TCOON,ioos:station:TCOON:009:1,2014-06-12T09:00:00Z,27.8398,-97.0727,1.74,1111122 
TCOON,ioos:station:TCOON:009:1,2014-06-12T10:00:00Z,27.8398,-97.0727,1.77,1111122 
TCOON,ioos:station:TCOON:009:1,2014-06-12T11:00:00Z,27.8398,-97.0727,1.742,1111122 
TCOON,ioos:station:TCOON:009:1,2014-06-12T12:00:00Z,27.8398,-97.0727,1.724,1111122 
TCOON,ioos:station:TCOON:009:1,2014-06-12T13:00:00Z,27.8398,-97.0727,1.72,1111122 
TCOON,ioos:station:TCOON:009:1,2014-06-12T14:00:00Z,27.8398,-97.0727,1.774,1111122 
TCOON,ioos:station:TCOON:009:1,2014-06-12T15:00:00Z,27.8398,-97.0727,1.744,1111122 
TCOON,ioos:station:TCOON:009:1,2014-06-12T16:00:00Z,27.8398,-97.0727,1.767,1111122 
TCOON,ioos:station:TCOON:009:1,2014-06-12T17:00:00Z,27.8398,-97.0727,1.735,1111122 
TCOON,ioos:station:TCOON:009:1,2014-06-12T18:00:00Z,27.8398,-97.0727,1.738,1111122 
TCOON,ioos:station:TCOON:009:1,2014-06-12T19:00:00Z,27.8398,-97.0727,1.708,1111122 
TCOON,ioos:station:TCOON:009:1,2014-06-12T20:00:00Z,27.8398,-97.0727,1.684,1111122 